Location: Assche-ter-Heiden
(50.9174°N, 4.1574°E)
Time: 13:47:50
(UTC+00:00)

Cosmos 2228 - Pass Details

Date: 20 January 2020
Orbit: 588 x 619 km, 82.5° (Epoch: 16 February)

Event Time Altitude Azimuth Distance (km) Brightness Sun altitude
Rises 05:48:58 0° 193° (SSW) 2,884 6.5 -16.4°
Reaches altitude 10° 05:51:12 10° 195° (SSW) 1,983 5.6 -16.0°
Maximum altitude 05:55:35 75° 281° (W) 647 2.9 -15.4°
Drops below altitude 10° 06:00:01 10° 7° (N) 1,994 5.6 -14.7°
Sets 06:02:15 0° 10° (N) 2,901 6.5 -14.3°
